65153 UUMU-UMMS

Flight info

Callsign 65153
Flight time 1h 9m
Altitude 30000
Route UUMU DCT FUMBU NIGLI RAFFU NIBLA SOTOG NEBSU ASKIL SODKO RUHAL
Aircraft T134/M-SDE3GHIJ2J3J5M1RVWXY/LB2D1

Departure

Time 2026-04-26 22:12
Airport Chkalovskiy Air Base (UUMU)

Arrival

Time 2026-04-26 23:21
Airport Minsk National Airport (UMMS)
Time Latitude Longitude Altitude Speed Heading
2026-04-26 21:48 55.89189 38.04732 507 ft 0 kts 43°
2026-04-26 22:07 55.89212 38.04767 507 ft 8 kts 35°
2026-04-26 22:07 55.89276 38.04723 507 ft 12 kts 300°
2026-04-26 22:07 55.89266 38.04609 507 ft 9 kts 274°
2026-04-26 22:07 55.89262 38.04577 507 ft 0 kts 242°
2026-04-26 22:08 55.89253 38.04536 507 ft 7 kts 260°
2026-04-26 22:08 55.89250 38.04482 507 ft 0 kts 263°
2026-04-26 22:09 55.89249 38.04480 507 ft 2 kts 263°
2026-04-26 22:09 55.89217 38.04356 507 ft 23 kts 216°
2026-04-26 22:09 55.89012 38.04268 507 ft 37 kts 197°
2026-04-26 22:10 55.88781 38.04187 507 ft 34 kts 192°
2026-04-26 22:10 55.88611 38.04317 507 ft 19 kts 134°
2026-04-26 22:10 55.88598 38.04345 507 ft 0 kts 126°
2026-04-26 22:11 55.88559 38.04432 507 ft 39 kts 130°
2026-04-26 22:11 55.88206 38.05162 507 ft 112 kts 130°
2026-04-26 22:11 55.87569 38.06485 507 ft 168 kts 131°
2026-04-26 22:11 55.86732 38.08172 937 ft 185 kts 132°
2026-04-26 22:12 55.85762 38.10048 1236 ft 222 kts 131°
2026-04-26 22:12 55.84701 38.12201 1831 ft 241 kts 130°
2026-04-26 22:12 55.83517 38.14596 1933 ft 281 kts 132°
2026-04-26 22:12 55.82157 38.17192 2279 ft 298 kts 134°
2026-04-26 22:13 55.80487 38.19439 2678 ft 301 kts 155°
2026-04-26 22:13 55.78519 38.20320 3600 ft 285 kts 173°
2026-04-26 22:13 55.76664 38.21187 4408 ft 274 kts 154°
2026-04-26 22:13 55.74920 38.22392 4973 ft 271 kts 166°
2026-04-26 22:14 55.73087 38.23300 5501 ft 270 kts 161°
2026-04-26 22:14 55.71292 38.24191 6004 ft 270 kts 165°
2026-04-26 22:14 55.69516 38.25145 6476 ft 270 kts 163°
2026-04-26 22:14 55.67696 38.26019 6934 ft 271 kts 162°
2026-04-26 22:15 55.65892 38.26963 7378 ft 271 kts 165°
2026-04-26 22:15 55.64069 38.27891 7814 ft 272 kts 163°
2026-04-26 22:15 55.62238 38.28802 8240 ft 273 kts 163°
2026-04-26 22:15 55.60416 38.29744 8654 ft 274 kts 164°
2026-04-26 22:16 55.58590 38.30660 9068 ft 276 kts 163°
2026-04-26 22:16 55.56804 38.32006 9398 ft 280 kts 144°
2026-04-26 22:16 55.55316 38.34306 9657 ft 287 kts 139°
2026-04-26 22:16 55.53395 38.36944 10240 ft 284 kts 139°
2026-04-26 22:17 55.51865 38.39099 10736 ft 282 kts 143°
2026-04-26 22:17 55.50337 38.41265 11182 ft 282 kts 141°
2026-04-26 22:17 55.48785 38.43380 11592 ft 283 kts 141°
2026-04-26 22:17 55.47244 38.45549 11991 ft 284 kts 142°
2026-04-26 22:18 55.45704 38.47722 12385 ft 285 kts 139°
2026-04-26 22:18 55.44176 38.49903 12771 ft 286 kts 145°
2026-04-26 22:18 55.42342 38.51355 12963 ft 294 kts 168°
2026-04-26 22:18 55.40281 38.51534 13158 ft 301 kts 188°
2026-04-26 22:19 55.38239 38.50604 13563 ft 301 kts 202°
2026-04-26 22:19 55.36467 38.48736 13974 ft 300 kts 219°
2026-04-26 22:19 55.34924 38.46326 14466 ft 297 kts 223°
2026-04-26 22:19 55.33501 38.43760 14954 ft 293 kts 227°
2026-04-26 22:20 55.32144 38.41119 15369 ft 293 kts 228°
2026-04-26 22:20 55.31235 38.39305 15622 ft 293 kts 229°
2026-04-26 22:20 55.29453 38.35708 16093 ft 295 kts 229°
2026-04-26 22:20 55.28108 38.32970 16446 ft 297 kts 229°
2026-04-26 22:21 55.26763 38.30229 16783 ft 302 kts 229°
2026-04-26 22:21 55.25342 38.27331 17046 ft 318 kts 229°
2026-04-26 22:21 55.23893 38.24379 17495 ft 327 kts 229°
2026-04-26 22:21 55.22406 38.21350 18140 ft 329 kts 229°
2026-04-26 22:22 55.20903 38.18293 18849 ft 330 kts 229°
2026-04-26 22:22 55.19426 38.15291 19518 ft 330 kts 229°
2026-04-26 22:22 55.17918 38.12231 20158 ft 332 kts 229°
2026-04-26 22:22 55.16415 38.09186 20768 ft 334 kts 229°
2026-04-26 22:23 55.14913 38.06145 21363 ft 336 kts 229°
2026-04-26 22:23 55.13379 38.03042 21961 ft 338 kts 229°
2026-04-26 22:23 55.11840 37.99935 22549 ft 339 kts 229°
2026-04-26 22:23 55.10296 37.96820 23125 ft 341 kts 229°
2026-04-26 22:24 55.08748 37.93704 23687 ft 342 kts 229°
2026-04-26 22:24 55.07168 37.90527 24247 ft 344 kts 229°
2026-04-26 22:24 55.05616 37.87410 24784 ft 346 kts 229°
2026-04-26 22:24 55.04043 37.84259 25314 ft 347 kts 229°
2026-04-26 22:25 55.02826 37.81821 25716 ft 348 kts 229°
2026-04-26 22:25 55.01220 37.78608 26236 ft 350 kts 229°
2026-04-26 22:25 54.99625 37.75419 26743 ft 352 kts 229°
2026-04-26 22:25 54.98035 37.72244 27237 ft 353 kts 229°
2026-04-26 22:26 54.96415 37.69014 27729 ft 355 kts 229°
2026-04-26 22:26 54.94781 37.65760 28213 ft 356 kts 229°
2026-04-26 22:26 54.93266 37.62338 28619 ft 359 kts 241°
2026-04-26 22:26 54.92324 37.58283 28847 ft 364 kts 254°
2026-04-26 22:27 54.91533 37.54120 29283 ft 363 kts 251°
2026-04-26 22:27 54.90722 37.50024 29789 ft 360 kts 251°
2026-04-26 22:27 54.89893 37.45955 30098 ft 364 kts 251°
2026-04-26 22:27 54.89012 37.41635 29761 ft 386 kts 251°
2026-04-26 22:28 54.88102 37.37199 29922 ft 393 kts 251°
2026-04-26 22:28 54.87183 37.32735 30034 ft 402 kts 250°
2026-04-26 22:28 54.86218 37.28054 29924 ft 415 kts 250°
2026-04-26 22:28 54.85234 37.23301 30083 ft 421 kts 250°
2026-04-26 22:29 54.84232 37.18469 29928 ft 435 kts 250°
2026-04-26 22:29 54.83185 37.13430 30039 ft 440 kts 250°
2026-04-26 22:29 54.81069 37.03288 29883 ft 459 kts 250°
2026-04-26 22:30 54.79991 36.98143 30048 ft 461 kts 250°
2026-04-26 22:30 54.78879 36.92843 29899 ft 470 kts 250°
2026-04-26 22:30 54.77757 36.87512 29689 ft 476 kts 250°
2026-04-26 22:30 54.76638 36.82209 30109 ft 467 kts 250°
2026-04-26 22:31 54.74379 36.71553 29286 ft 488 kts 250°
2026-04-26 22:31 54.72949 36.60512 29948 ft 463 kts 271°
2026-04-26 22:32 54.73015 36.55029 30390 ft 458 kts 270°
2026-04-26 22:32 54.73004 36.49366 29256 ft 486 kts 271°
2026-04-26 22:32 54.73008 36.43507 29142 ft 480 kts 270°
2026-04-26 22:32 54.73026 36.37903 30317 ft 454 kts 270°
2026-04-26 22:33 54.73018 36.32494 30064 ft 466 kts 270°
2026-04-26 22:33 54.73015 36.20983 29605 ft 467 kts 270°
2026-04-26 22:33 54.73008 36.15548 30536 ft 447 kts 270°
2026-04-26 22:34 54.73000 36.10039 29461 ft 474 kts 270°
2026-04-26 22:34 54.72987 36.04420 29575 ft 460 kts 270°
2026-04-26 22:34 54.72975 35.99069 30490 ft 433 kts 270°
2026-04-26 22:34 54.72959 35.93806 29433 ft 456 kts 270°
2026-04-26 22:35 54.72941 35.88367 30007 ft 437 kts 270°
2026-04-26 22:35 54.72922 35.83194 29515 ft 446 kts 270°
2026-04-26 22:35 54.72897 35.77738 29418 ft 443 kts 270°
2026-04-26 22:35 54.72874 35.72584 29951 ft 433 kts 270°
2026-04-26 22:36 54.72846 35.67234 29381 ft 453 kts 270°
2026-04-26 22:36 54.72816 35.61881 30236 ft 436 kts 270°
2026-04-26 22:36 54.72784 35.56569 29762 ft 448 kts 270°
2026-04-26 22:36 54.72750 35.51318 30042 ft 428 kts 270°
2026-04-26 22:37 54.72716 35.46282 30024 ft 418 kts 270°
2026-04-26 22:37 54.72679 35.41238 29811 ft 411 kts 270°
2026-04-26 22:37 54.72642 35.36468 30168 ft 393 kts 270°
2026-04-26 22:37 54.72603 35.31665 29785 ft 394 kts 269°
2026-04-26 22:38 54.72564 35.27034 30033 ft 377 kts 269°
2026-04-26 22:38 54.72483 35.18203 29824 ft 368 kts 269°
2026-04-26 22:39 54.72397 35.09517 29757 ft 361 kts 269°
2026-04-26 22:39 54.72304 35.00779 29810 ft 369 kts 269°
2026-04-26 22:40 54.72203 34.91831 29932 ft 376 kts 269°
2026-04-26 22:40 54.72093 34.82706 30042 ft 383 kts 269°
2026-04-26 22:41 54.71975 34.73416 30050 ft 393 kts 269°
2026-04-26 22:41 54.71846 34.63891 30042 ft 403 kts 269°
2026-04-26 22:42 54.71706 34.54155 30042 ft 410 kts 269°
2026-04-26 22:42 54.71555 34.44192 30046 ft 417 kts 269°
2026-04-26 22:43 54.71395 34.34098 30048 ft 423 kts 268°
2026-04-26 22:43 54.71225 34.23931 30046 ft 427 kts 268°
2026-04-26 22:44 54.71043 34.13642 30040 ft 431 kts 268°
2026-04-26 22:44 54.70851 34.03236 30033 ft 435 kts 268°
2026-04-26 22:45 54.70650 33.92776 30030 ft 437 kts 268°
2026-04-26 22:45 54.70313 33.82329 30013 ft 440 kts 263°
2026-04-26 22:46 54.69622 33.71837 30037 ft 441 kts 263°
2026-04-26 22:46 54.68944 33.61291 30058 ft 442 kts 264°
2026-04-26 22:47 54.68258 33.50710 30038 ft 443 kts 264°
2026-04-26 22:47 54.67561 33.40155 30002 ft 445 kts 264°
2026-04-26 22:48 54.66850 33.29523 30010 ft 446 kts 263°
2026-04-26 22:48 54.66130 33.18912 30051 ft 445 kts 263°
2026-04-26 22:49 54.65402 33.08300 30058 ft 446 kts 263°
2026-04-26 22:49 54.64664 32.97702 30014 ft 447 kts 263°
2026-04-26 22:50 54.63911 32.87026 29989 ft 448 kts 263°
2026-04-26 22:50 54.63155 32.76428 30033 ft 448 kts 263°
2026-04-26 22:51 54.62386 32.65780 30076 ft 447 kts 263°
2026-04-26 22:51 54.61606 32.55134 30024 ft 448 kts 263°
2026-04-26 22:52 54.60815 32.44465 29965 ft 450 kts 263°
2026-04-26 22:52 54.60420 32.39177 30072 ft 447 kts 263°
2026-04-26 22:52 54.60018 32.33826 30028 ft 449 kts 262°
2026-04-26 22:53 54.59210 32.23188 30110 ft 447 kts 262°
2026-04-26 22:53 54.58802 32.17851 29965 ft 450 kts 262°
2026-04-26 22:53 54.58390 32.12510 30024 ft 449 kts 262°
2026-04-26 22:54 54.57561 32.01846 29919 ft 451 kts 262°
2026-04-26 22:54 54.57145 31.96537 30108 ft 447 kts 262°
2026-04-26 22:54 54.56724 31.91195 30023 ft 449 kts 262°
2026-04-26 22:55 54.55880 31.80579 30169 ft 445 kts 262°
2026-04-26 22:55 54.55452 31.75242 29916 ft 452 kts 262°
2026-04-26 22:55 54.55024 31.69939 30028 ft 449 kts 262°
2026-04-26 22:55 54.54595 31.64651 30140 ft 446 kts 262°
2026-04-26 22:56 54.54156 31.59276 29845 ft 453 kts 262°
2026-04-26 22:56 54.53719 31.53946 30176 ft 445 kts 262°
2026-04-26 22:56 54.53281 31.48637 29990 ft 450 kts 262°
2026-04-26 22:57 54.52402 31.38067 30249 ft 443 kts 262°
2026-04-26 22:57 54.51955 31.32741 29821 ft 454 kts 261°
2026-04-26 22:57 54.51500 31.27350 30102 ft 447 kts 261°
2026-04-26 22:58 54.50601 31.16776 29781 ft 455 kts 261°
2026-04-26 22:58 54.50148 31.11490 30301 ft 442 kts 261°
2026-04-26 22:58 54.49536 31.06301 29804 ft 454 kts 252°
2026-04-26 22:58 54.48485 31.01155 30002 ft 448 kts 253°
2026-04-26 22:59 54.47595 30.96200 30325 ft 440 kts 251°
2026-04-26 22:59 54.46619 30.91111 29602 ft 458 kts 252°
2026-04-26 22:59 54.45639 30.85980 30407 ft 437 kts 252°
2026-04-26 22:59 54.44703 30.81018 29866 ft 452 kts 252°
2026-04-26 23:00 54.43724 30.75875 29841 ft 451 kts 252°
2026-04-26 23:00 54.42772 30.70845 30433 ft 437 kts 252°
2026-04-26 23:00 54.41813 30.65826 29544 ft 459 kts 252°
2026-04-26 23:00 54.40812 30.60597 29255 ft 464 kts 252°
2026-04-26 23:01 54.39792 30.55290 27678 ft 494 kts 252°
2026-04-26 23:01 54.38702 30.49634 25417 ft 508 kts 252°
2026-04-26 23:01 54.37620 30.44021 24032 ft 498 kts 252°
2026-04-26 23:01 54.36548 30.38473 23729 ft 481 kts 252°
2026-04-26 23:02 54.35513 30.33143 23407 ft 472 kts 251°
2026-04-26 23:02 54.34478 30.27823 22860 ft 469 kts 251°
2026-04-26 23:02 54.33452 30.22563 22283 ft 466 kts 251°
2026-04-26 23:02 54.32430 30.17340 21757 ft 463 kts 251°
2026-04-26 23:03 54.31413 30.12157 21242 ft 459 kts 251°
2026-04-26 23:03 54.30396 30.06989 20686 ft 453 kts 251°
2026-04-26 23:03 54.29405 30.01966 20090 ft 447 kts 251°
2026-04-26 23:03 54.28424 29.97007 19349 ft 444 kts 251°
2026-04-26 23:04 54.27438 29.92039 18584 ft 441 kts 251°
2026-04-26 23:04 54.26459 29.87114 17988 ft 435 kts 251°
2026-04-26 23:04 54.25489 29.82248 17480 ft 427 kts 251°
2026-04-26 23:04 54.24548 29.77537 17073 ft 418 kts 251°
2026-04-26 23:05 54.23612 29.72865 16621 ft 411 kts 251°
2026-04-26 23:05 54.22701 29.68330 16201 ft 405 kts 251°
2026-04-26 23:05 54.21788 29.63792 15779 ft 400 kts 251°
2026-04-26 23:05 54.20895 29.59364 15376 ft 395 kts 251°
2026-04-26 23:06 54.20008 29.54980 15214 ft 384 kts 251°
2026-04-26 23:06 54.19150 29.50745 15037 ft 376 kts 251°
2026-04-26 23:06 54.18306 29.46591 14829 ft 370 kts 251°
2026-04-26 23:06 54.17471 29.42486 14644 ft 364 kts 251°
2026-04-26 23:07 54.16644 29.38432 14449 ft 359 kts 251°
2026-04-26 23:07 54.16096 29.35754 14319 ft 357 kts 251°
2026-04-26 23:07 54.15007 29.30429 14059 ft 352 kts 250°
2026-04-26 23:07 54.14203 29.26511 13864 ft 349 kts 250°
2026-04-26 23:08 54.13402 29.22668 13751 ft 343 kts 248°
2026-04-26 23:08 54.12199 29.19179 13551 ft 341 kts 229°
2026-04-26 23:08 54.10469 29.16438 13512 ft 334 kts 221°
2026-04-26 23:08 54.08772 29.13782 13451 ft 330 kts 221°
2026-04-26 23:09 54.07030 29.11185 13303 ft 328 kts 222°
2026-04-26 23:09 54.05350 29.08625 13199 ft 325 kts 221°
2026-04-26 23:09 54.03630 29.06037 13077 ft 324 kts 221°
2026-04-26 23:09 54.01963 29.03528 12957 ft 322 kts 221°
2026-04-26 23:10 54.00270 29.00979 12836 ft 321 kts 221°
2026-04-26 23:10 53.98592 28.98460 12712 ft 319 kts 221°
2026-04-26 23:10 53.96941 28.95981 12589 ft 318 kts 221°
2026-04-26 23:10 53.95272 28.93481 12464 ft 317 kts 221°
2026-04-26 23:11 53.93615 28.91000 12340 ft 316 kts 221°
2026-04-26 23:11 53.91981 28.88556 12216 ft 315 kts 221°
2026-04-26 23:11 53.90332 28.86043 12087 ft 314 kts 224°
2026-04-26 23:11 53.88795 28.83430 11958 ft 314 kts 224°
2026-04-26 23:12 53.87189 28.80863 11472 ft 325 kts 223°
2026-04-26 23:12 53.85437 28.78240 10473 ft 348 kts 221°
2026-04-26 23:12 53.83607 28.75468 9719 ft 359 kts 221°
2026-04-26 23:12 53.81734 28.72715 8895 ft 367 kts 222°
2026-04-26 23:13 53.79792 28.69827 8125 ft 371 kts 220°
2026-04-26 23:13 53.77891 28.66976 7407 ft 371 kts 222°
2026-04-26 23:13 53.75924 28.64129 6658 ft 371 kts 221°
2026-04-26 23:13 53.74017 28.61223 6103 ft 366 kts 220°
2026-04-26 23:14 53.72112 28.58489 5510 ft 361 kts 223°
2026-04-26 23:14 53.70297 28.55776 5086 ft 337 kts 219°
2026-04-26 23:14 53.68652 28.53126 4686 ft 318 kts 234°
2026-04-26 23:14 53.67766 28.49956 4812 ft 285 kts 257°
2026-04-26 23:15 53.67598 28.46755 4680 ft 268 kts 274°
2026-04-26 23:15 53.67679 28.43696 4448 ft 256 kts 272°
2026-04-26 23:15 53.67746 28.40722 4115 ft 250 kts 273°
2026-04-26 23:15 53.68044 28.37865 3630 ft 251 kts 294°
2026-04-26 23:16 53.69022 28.35447 3110 ft 252 kts 317°
2026-04-26 23:16 53.70231 28.33405 3011 ft 245 kts 310°
2026-04-26 23:16 53.71394 28.31346 2943 ft 241 kts 315°
2026-04-26 23:16 53.72592 28.29359 2957 ft 239 kts 315°
2026-04-26 23:17 53.73769 28.27391 2955 ft 237 kts 316°
2026-04-26 23:17 53.75029 28.25629 2909 ft 237 kts 323°
2026-04-26 23:17 53.76365 28.23978 2875 ft 237 kts 325°
2026-04-26 23:17 53.77760 28.22446 2846 ft 237 kts 326°
2026-04-26 23:18 53.79075 28.20828 2842 ft 235 kts 322°
2026-04-26 23:18 53.80355 28.19089 2851 ft 233 kts 320°
2026-04-26 23:18 53.81528 28.17469 3369 ft 205 kts 321°
2026-04-26 23:18 53.82653 28.15827 2684 ft 224 kts 314°
2026-04-26 23:19 53.83748 28.13906 2208 ft 223 kts 313°
2026-04-26 23:19 53.84730 28.12158 2047 ft 193 kts 314°
2026-04-26 23:19 53.85640 28.10640 1677 ft 181 kts 316°
2026-04-26 23:19 53.86571 28.09224 1164 ft 179 kts 319°
2026-04-26 23:20 53.87470 28.07895 836 ft 168 kts 318°
2026-04-26 23:20 53.88352 28.06576 696 ft 173 kts 319°
2026-04-26 23:20 53.89224 28.05292 676 ft 151 kts 319°
2026-04-26 23:20 53.89823 28.04365 676 ft 99 kts 321°
2026-04-26 23:21 53.90316 28.03655 676 ft 75 kts 328°
2026-04-26 23:21 53.90604 28.03265 676 ft 36 kts 31°
2026-04-26 23:21 53.90613 28.03268 676 ft 0 kts 33°
2026-04-26 23:21 53.90617 28.03294 676 ft 5 kts 113°
2026-04-26 23:22 53.90548 28.03311 676 ft 13 kts 120°
2026-04-26 23:22 53.90445 28.03197 676 ft 39 kts 217°
2026-04-26 23:22 53.90332 28.03185 676 ft 7 kts 46°
2026-04-26 23:22 53.90243 28.03363 676 ft 39 kts 138°
2026-04-26 23:23 53.89964 28.03753 676 ft 53 kts 138°
2026-04-26 23:23 53.89699 28.04158 676 ft 45 kts 141°
2026-04-26 23:23 53.89556 28.04366 676 ft 9 kts 138°
2026-04-26 23:23 53.89492 28.04469 676 ft 15 kts 135°
2026-04-26 23:24 53.89405 28.04629 676 ft 21 kts 130°
2026-04-26 23:24 53.89322 28.04824 676 ft 15 kts 120°
2026-04-26 23:24 53.89236 28.04885 676 ft 33 kts 203°
2026-04-26 23:24 53.88927 28.04332 676 ft 88 kts 232°
2026-04-26 23:25 53.88497 28.03529 676 ft 69 kts 237°
2026-04-26 23:25 53.88379 28.03215 676 ft 0 kts 280°
2026-04-26 23:25 53.88392 28.03205 676 ft 7 kts 32°
2026-04-26 23:25 53.88450 28.03437 676 ft 44 kts 33°
2026-04-26 23:26 53.88611 28.03344 676 ft 6 kts 288°
2026-04-26 23:26 53.88708 28.03216 676 ft 41 kts 324°
2026-04-26 23:26 53.88933 28.02892 676 ft 32 kts 320°
2026-04-26 23:26 53.89080 28.02596 675 ft 32 kts 219°
2026-04-26 23:27 53.89036 28.02358 675 ft 15 kts 277°
2026-04-26 23:27 53.89149 28.02119 675 ft 45 kts 318°
2026-04-26 23:27 53.89304 28.01892 675 ft 23 kts 321°
2026-04-26 23:28 53.89408 28.01737 675 ft 32 kts 317°
2026-04-26 23:28 53.89602 28.01497 675 ft 46 kts 23°
2026-04-26 23:28 53.89664 28.01523 675 ft 0 kts 47°